| time (UTC) | temp F | wind direction | speed MPH | gust MPH | rain 1hr in | rain 24hr in | rain mn in | humidity % | barometer mb |
| 20260504100534 | 64 | 203 | 8.0 | 15.0 | 0.00 | 0.00 | 0.00 | 65 | 1012.6 |
| 20260504081530 | 65 | 191 | 7.0 | 15.0 | 0.00 | 0.00 | 0.00 | 58 | 1013.0 |
| 20260504081033 | 65 | 181 | 7.0 | 16.0 | 0.00 | 0.00 | 0.00 | 58 | 1013.1 |
| 20260504080539 | 66 | 199 | 6.0 | 16.0 | 0.00 | 0.00 | 0.00 | 57 | 1013.2 |
| 20260504050526 | 69 | 202 | 6.0 | 12.0 | 0.00 | 0.00 | 0.00 | 51 | 1015.1 |
| 20260504045533 | 69 | 153 | 6.0 | 15.0 | 0.00 | 0.00 | 0.00 | 50 | 1015.1 |
| 20260504045021 | 69 | 206 | 6.0 | 11.0 | 0.00 | 0.00 | 0.00 | 50 | 1015.2 |
| 20260504044534 | 69 | 185 | 3.0 | 11.0 | 0.00 | 0.00 | 0.00 | 50 | 1015.2 |
| 20260504044041 | 69 | 197 | 5.0 | 9.0 | 0.00 | 0.00 | 0.00 | 50 | 1015.3 |
| 20260504043548 | 69 | 199 | 1.0 | 10.0 | 0.00 | 0.00 | 0.00 | 50 | 1015.3 |
| 20260504043030 | 69 | 212 | 6.0 | 10.0 | 0.00 | 0.00 | 0.00 | 50 | 1015.3 |
| 20260504042535 | 70 | 212 | 2.0 | 11.0 | 0.00 | 0.00 | 0.00 | 49 | 1015.4 |
| 20260504042024 | 70 | 202 | 1.0 | 11.0 | 0.00 | 0.00 | 0.00 | 49 | 1015.5 |
| 20260504041527 | 70 | 191 | 3.0 | 11.0 | 0.00 | 0.00 | 0.00 | 49 | 1015.6 |
| 20260504041039 | 70 | 201 | 0.0 | 12.0 | 0.00 | 0.00 | 0.00 | 49 | 1015.5 |
| 20260504040555 | 70 | 206 | 2.0 | 12.0 | 0.00 | 0.00 | 0.00 | 48 | 1015.6 |
| 20260504040041 | 70 | 153 | 5.0 | 11.0 | 0.00 | 0.00 | 0.00 | 48 | 1015.4 |
| 20260504035525 | 70 | 136 | 8.0 | 11.0 | 0.00 | 0.00 | 0.00 | 48 | 1015.5 |
| 20260504035032 | 70 | 191 | 5.0 | 14.0 | 0.00 | 0.00 | 0.00 | 48 | 1015.4 |
| 20260504034535 | 71 | 196 | 5.0 | 14.0 | 0.00 | 0.00 | 0.00 | 47 | 1015.4 |
| 20260504034040 | 71 | 169 | 3.0 | 14.0 | 0.00 | 0.00 | 0.00 | 47 | 1015.3 |
| 20260504033544 | 71 | 193 | 3.0 | 14.0 | 0.00 | 0.00 | 0.00 | 47 | 1015.3 |
| 20260504033054 | 71 | 211 | 0.0 | 13.0 | 0.00 | 0.00 | 0.00 | 47 | 1015.3 |
| 20260504032524 | 71 | 195 | 4.0 | 13.0 | 0.00 | 0.00 | 0.00 | 46 | 1015.3 |
| 20260504032028 | 71 | 194 | 2.0 | 10.0 | 0.00 | 0.00 | 0.00 | 46 | 1015.4 |
| 20260504031555 | 71 | 195 | 4.0 | 10.0 | 0.00 | 0.00 | 0.00 | 46 | 1015.4 |
| 20260504031040 | 71 | 187 | 0.0 | 10.0 | 0.00 | 0.00 | 0.00 | 46 | 1015.3 |
| 20260504030526 | 71 | 207 | 1.0 | 9.0 | 0.00 | 0.00 | 0.00 | 45 | 1015.3 |
| 20260504030034 | 72 | 153 | 2.0 | 10.0 | 0.00 | 0.00 | 0.00 | 45 | 1015.2 |
| 20260504025524 | 72 | 153 | 1.0 | 12.0 | 0.00 | 0.00 | 0.00 | 44 | 1015.2 |
| 20260504025030 | 72 | 196 | 5.0 | 12.0 | 0.00 | 0.00 | 0.00 | 44 | 1015.2 |
| 20260504024538 | 72 | 215 | 0.0 | 10.0 | 0.00 | 0.00 | 0.00 | 44 | 1015.2 |
| 20260504024035 | 72 | 208 | 2.0 | 13.0 | 0.00 | 0.00 | 0.00 | 43 | 1015.2 |
| 20260504023525 | 73 | 153 | 6.0 | 13.0 | 0.00 | 0.00 | 0.00 | 42 | 1015.1 |
| 20260504023033 | 73 | 216 | 4.0 | 12.0 | 0.00 | 0.00 | 0.00 | 42 | 1015.2 |
| 20260504022541 | 73 | 173 | 4.0 | 12.0 | 0.00 | 0.00 | 0.00 | 41 | 1015.0 |
| 20260504022050 | 73 | 153 | 4.0 | 10.0 | 0.00 | 0.00 | 0.00 | 41 | 1015.0 |
| 20260504021533 | 73 | 201 | 5.0 | 11.0 | 0.00 | 0.00 | 0.00 | 41 | 1014.9 |
| 20260504021039 | 74 | 202 | 5.0 | 12.0 | 0.00 | 0.00 | 0.00 | 40 | 1014.9 |
| 20260504020529 | 74 | 203 | 7.0 | 12.0 | 0.00 | 0.00 | 0.00 | 40 | 1015.0 |
| 20260504020034 | 74 | 179 | 4.0 | 13.0 | 0.00 | 0.00 | 0.00 | 40 | 1015.0 |
| 20260504015539 | 74 | 209 | 3.0 | 13.0 | 0.00 | 0.00 | 0.00 | 40 | 1015.0 |
| 20260504015024 | 74 | 208 | 5.0 | 13.0 | 0.00 | 0.00 | 0.00 | 40 | 1015.0 |
| 20260504014534 | 74 | 189 | 2.0 | 11.0 | 0.00 | 0.00 | 0.00 | 40 | 1015.1 |
| 20260504014022 | 75 | 175 | 4.0 | 13.0 | 0.00 | 0.00 | 0.00 | 40 | 1015.0 |
| 20260504013553 | 75 | 203 | 3.0 | 13.0 | 0.00 | 0.00 | 0.00 | 39 | 1014.8 |
| 20260504013039 | 75 | 165 | 2.0 | 11.0 | 0.00 | 0.00 | 0.00 | 39 | 1014.7 |
| 20260504012542 | 76 | 179 | 2.0 | 13.0 | 0.00 | 0.00 | 0.00 | 38 | 1014.8 |
| 20260504012024 | 76 | 216 | 0.0 | 11.0 | 0.00 | 0.00 | 0.00 | 37 | 1014.7 |
| 20260504011534 | 76 | 164 | 1.0 | 11.0 | 0.00 | 0.00 | 0.00 | 37 | 1014.7 |
| 20260504011022 | 76 | 204 | 4.0 | 11.0 | 0.00 | 0.00 | 0.00 | 36 | 1014.7 |
| 20260504010530 | 76 | 166 | 3.0 | 13.0 | 0.00 | 0.00 | 0.00 | 35 | 1014.7 |
| 20260504010032 | 77 | 182 | 6.0 | 18.0 | 0.00 | 0.00 | 0.00 | 35 | 1014.7 |
| 20260504005520 | 77 | 153 | 11.0 | 18.0 | 0.00 | 0.00 | 0.00 | 34 | 1014.4 |
| 20260504005029 | 77 | 220 | 6.0 | 14.0 | 0.00 | 0.00 | 0.00 | 35 | 1014.4 |
| 20260504004532 | 77 | 187 | 5.0 | 13.0 | 0.00 | 0.00 | 0.00 | 35 | 1014.5 |
| 20260504004039 | 78 | 179 | 2.0 | 15.0 | 0.00 | 0.00 | 0.00 | 34 | 1014.4 |
| 20260504003548 | 78 | 169 | 9.0 | 15.0 | 0.00 | 0.00 | 0.00 | 34 | 1014.4 |
| 20260504003053 | 78 | 179 | 7.0 | 13.0 | 0.00 | 0.00 | 0.00 | 33 | 1014.5 |
| 20260504002537 | 78 | 189 | 3.0 | 17.0 | 0.00 | 0.00 | 0.00 | 34 | 1014.5 |
| 20260504002045 | 79 | 195 | 9.0 | 17.0 | 0.00 | 0.00 | 0.00 | 32 | 1014.6 |
| 20260504001528 | 79 | 202 | 8.0 | 15.0 | 0.00 | 0.00 | 0.00 | 32 | 1014.7 |
| 20260504001035 | 79 | 199 | 4.0 | 12.0 | 0.00 | 0.00 | 0.00 | 33 | 1014.7 |
| 20260504000541 | 79 | 153 | 2.0 | 14.0 | 0.00 | 0.00 | 0.00 | 32 | 1014.7 |
| 20260504000031 | 80 | 158 | 7.0 | 15.0 | 0.00 | 0.00 | 0.00 | 33 | 1014.7 |
| 20260503235540 | 80 | 204 | 9.0 | 15.0 | 0.00 | 0.00 | 0.00 | 32 | 1014.7 |
| 20260503235026 | 80 | 216 | 1.0 | 13.0 | 0.00 | 0.00 | 0.00 | 32 | 1014.8 |
| 20260503234534 | 80 | 216 | 5.0 | 13.0 | 0.00 | 0.00 | 0.00 | 30 | 1014.8 |
| 20260503234019 | 80 | 229 | 0.0 | 15.0 | 0.00 | 0.00 | 0.00 | 31 | 1014.9 |
| 20260503233540 | 80 | 190 | 3.0 | 16.0 | 0.00 | 0.00 | 0.00 | 30 | 1014.8 |
| 20260503233024 | 80 | 199 | 10.0 | 16.0 | 0.00 | 0.00 | 0.00 | 30 | 1014.9 |
| 20260503232532 | 80 | 217 | 2.0 | 13.0 | 0.00 | 0.00 | 0.00 | 31 | 1014.9 |
| 20260503232100 | 81 | 198 | 7.0 | 15.0 | 0.00 | 0.00 | 0.00 | 31 | 1014.9 |
| 20260503231526 | 81 | 222 | 10.0 | 15.0 | 0.00 | 0.00 | 0.00 | 31 | 1015.1 |
| 20260503231049 | 81 | 197 | 0.0 | 15.0 | 0.00 | 0.00 | 0.00 | 32 | 1015.1 |
| 20260503230550 | 81 | 201 | 6.0 | 16.0 | 0.00 | 0.00 | 0.00 | 31 | 1015.1 |
| 20260503230038 | 81 | 224 | 1.0 | 16.0 | 0.00 | 0.00 | 0.00 | 31 | 1015.1 |
| 20260503225538 | 81 | 203 | 6.0 | 17.0 | 0.00 | 0.00 | 0.00 | 32 | 1015.1 |
| 20260503225046 | 80 | 214 | 1.0 | 17.0 | 0.00 | 0.00 | 0.00 | 30 | 1015.1 |
| 20260503224550 | 81 | 221 | 7.0 | 18.0 | 0.00 | 0.00 | 0.00 | 30 | 1015.1 |
| 20260503224100 | 81 | 153 | 8.0 | 18.0 | 0.00 | 0.00 | 0.00 | 29 | 1015.2 |
| 20260503223527 | 81 | 216 | 10.0 | 17.0 | 0.00 | 0.00 | 0.00 | 29 | 1015.2 |
| 20260503223032 | 81 | 233 | 11.0 | 17.0 | 0.00 | 0.00 | 0.00 | 30 | 1015.3 |
| 20260503222541 | 81 | 216 | 2.0 | 18.0 | 0.00 | 0.00 | 0.00 | 31 | 1015.3 |
| 20260503222026 | 81 | 220 | 12.0 | 18.0 | 0.00 | 0.00 | 0.00 | 31 | 1015.4 |
| 20260503221533 | 81 | 235 | 8.0 | 16.0 | 0.00 | 0.00 | 0.00 | 30 | 1015.4 |
| 20260503221043 | 81 | 189 | 1.0 | 15.0 | 0.00 | 0.00 | 0.00 | 31 | 1015.5 |
| 20260503220552 | 82 | 153 | 10.0 | 19.0 | 0.00 | 0.00 | 0.00 | 30 | 1015.6 |
| 20260503220037 | 82 | 246 | 13.0 | 19.0 | 0.00 | 0.00 | 0.00 | 29 | 1015.7 |
| 20260503215527 | 82 | 236 | 4.0 | 17.0 | 0.00 | 0.00 | 0.00 | 29 | 1015.7 |
| 20260503215033 | 82 | 153 | 5.0 | 17.0 | 0.00 | 0.00 | 0.00 | 29 | 1015.8 |
| 20260503214537 | 82 | 240 | 5.0 | 16.0 | 0.00 | 0.00 | 0.00 | 29 | 1015.9 |
| 20260503214042 | 82 | 234 | 7.0 | 17.0 | 0.00 | 0.00 | 0.00 | 27 | 1016.0 |
| 20260503213534 | 82 | 238 | 5.0 | 17.0 | 0.00 | 0.00 | 0.00 | 28 | 1016.1 |
| 20260503213025 | 82 | 222 | 0.0 | 15.0 | 0.00 | 0.00 | 0.00 | 28 | 1016.1 |
| 20260503212550 | 82 | 202 | 5.0 | 16.0 | 0.00 | 0.00 | 0.00 | 29 | 1016.2 |
| 20260503212025 | 82 | 177 | 6.0 | 15.0 | 0.00 | 0.00 | 0.00 | 30 | 1016.3 |
| 20260503211532 | 82 | 241 | 10.0 | 15.0 | 0.00 | 0.00 | 0.00 | 28 | 1016.4 |
| 20260503211108 | 82 | 203 | 8.0 | 16.0 | 0.00 | 0.00 | 0.00 | 29 | 1016.4 |
| 20260503210532 | 82 | 218 | 8.0 | 16.0 | 0.00 | 0.00 | 0.00 | 29 | 1016.5 |
| 20260503210039 | 82 | 214 | 5.0 | 14.0 | 0.00 | 0.00 | 0.00 | 30 | 1016.5 |
| 20260503205607 | 82 | 224 | 9.0 | 15.0 | 0.00 | 0.00 | 0.00 | 29 | 1016.7 |
| 20260503205053 | 82 | 245 | 8.0 | 16.0 | 0.00 | 0.00 | 0.00 | 28 | 1016.8 |
| 20260503204539 | 82 | 204 | 13.0 | 16.0 | 0.00 | 0.00 | 0.00 | 28 | 1016.8 |
| 20260503204028 | 83 | 197 | 3.0 | 11.0 | 0.00 | 0.00 | 0.00 | 29 | 1017.0 |
| 20260503203530 | 82 | 198 | 1.0 | 15.0 | 0.00 | 0.00 | 0.00 | 32 | 1017.0 |
| 20260503203034 | 81 | 215 | 8.0 | 16.0 | 0.00 | 0.00 | 0.00 | 30 | 1016.9 |
| 20260503202525 | 81 | 233 | 6.0 | 16.0 | 0.00 | 0.00 | 0.00 | 30 | 1017.3 |
| 20260503202029 | 82 | 214 | 1.0 | 16.0 | 0.00 | 0.00 | 0.00 | 31 | 1017.4 |
| 20260503201534 | 82 | 235 | 3.0 | 16.0 | 0.00 | 0.00 | 0.00 | 31 | 1017.5 |
| 20260503201045 | 82 | 118 | 1.0 | 15.0 | 0.00 | 0.00 | 0.00 | 30 | 1017.5 |
| 20260503200557 | 82 | 223 | 1.0 | 16.0 | 0.00 | 0.00 | 0.00 | 29 | 1017.5 |
| 20260503200025 | 82 | 253 | 5.0 | 16.0 | 0.00 | 0.00 | 0.00 | 32 | 1017.5 |
| 20260503195532 | 82 | 233 | 1.0 | 14.0 | 0.00 | 0.00 | 0.00 | 31 | 1017.6 |
| 20260503195053 | 82 | 233 | 5.0 | 14.0 | 0.00 | 0.00 | 0.00 | 31 | 1017.8 |
| 20260503194520 | 82 | 207 | 1.0 | 14.0 | 0.00 | 0.00 | 0.00 | 32 | 1017.8 |
| 20260503194054 | 82 | 190 | 2.0 | 14.0 | 0.00 | 0.00 | 0.00 | 34 | 1017.9 |
| 20260503193542 | 82 | 206 | 2.0 | 16.0 | 0.00 | 0.00 | 0.00 | 30 | 1018.0 |
| 20260503193027 | 82 | 221 | 10.0 | 16.0 | 0.00 | 0.00 | 0.00 | 32 | 1018.1 |
| 20260503192531 | 81 | 227 | 8.0 | 13.0 | 0.00 | 0.00 | 0.00 | 32 | 1018.2 |
| 20260503192034 | 82 | 210 | 5.0 | 12.0 | 0.00 | 0.00 | 0.00 | 32 | 1018.3 |
| 20260503191536 | 82 | 216 | 1.0 | 14.0 | 0.00 | 0.00 | 0.00 | 33 | 1018.4 |
| 20260503191040 | 82 | 262 | 10.0 | 14.0 | 0.00 | 0.00 | 0.00 | 35 | 1018.4 |
| 20260503190544 | 81 | 246 | 1.0 | 14.0 | 0.00 | 0.00 | 0.00 | 37 | 1018.5 |
| 20260503190043 | 81 | 254 | 0.0 | 15.0 | 0.00 | 0.00 | 0.00 | 37 | 1018.6 |
| 20260503185527 | 81 | 258 | 10.0 | 15.0 | 0.00 | 0.00 | 0.00 | 37 | 1018.7 |
| 20260503185033 | 81 | 239 | 7.0 | 15.0 | 0.00 | 0.00 | 0.00 | 38 | 1018.7 |
| 20260503184540 | 81 | 236 | 7.0 | 14.0 | 0.00 | 0.00 | 0.00 | 36 | 1018.8 |
| 20260503184025 | 81 | 226 | 7.0 | 14.0 | 0.00 | 0.00 | 0.00 | 37 | 1018.9 |
| 20260503183525 | 80 | 266 | 6.0 | 14.0 | 0.00 | 0.00 | 0.00 | 37 | 1019.0 |
| 20260503183031 | 80 | 242 | 10.0 | 14.0 | 0.00 | 0.00 | 0.00 | 36 | 1019.0 |
| 20260503182524 | 80 | 215 | 6.0 | 17.0 | 0.00 | 0.00 | 0.00 | 37 | 1019.1 |
| 20260503182028 | 80 | 215 | 10.0 | 17.0 | 0.00 | 0.00 | 0.00 | 39 | 1019.2 |
| 20260503181530 | 80 | 254 | 4.0 | 16.0 | 0.00 | 0.00 | 0.00 | 39 | 1019.4 |
| 20260503181044 | 80 | 251 | 10.0 | 16.0 | 0.00 | 0.00 | 0.00 | 40 | 1019.5 |
| 20260503180545 | 80 | 231 | 7.0 | 16.0 | 0.00 | 0.00 | 0.00 | 38 | 1019.6 |
| 20260503180030 | 80 | 239 | 2.0 | 16.0 | 0.00 | 0.00 | 0.00 | 39 | 1019.7 |
| 20260503175537 | 79 | 240 | 6.0 | 16.0 | 0.00 | 0.00 | 0.00 | 39 | 1019.7 |
| 20260503175027 | 79 | 229 | 10.0 | 16.0 | 0.00 | 0.00 | 0.00 | 38 | 1019.8 |
| 20260503174541 | 79 | 208 | 7.0 | 17.0 | 0.00 | 0.00 | 0.00 | 41 | 1019.9 |
| 20260503174044 | 79 | 249 | 9.0 | 17.0 | 0.00 | 0.00 | 0.00 | 41 | 1020.0 |
| 20260503173532 | 79 | 240 | 4.0 | 13.0 | 0.00 | 0.00 | 0.00 | 41 | 1020.0 |
| 20260503173030 | 79 | 227 | 6.0 | 17.0 | 0.00 | 0.00 | 0.00 | 42 | 1020.0 |
| 20260503172541 | 79 | 268 | 12.0 | 17.0 | 0.00 | 0.00 | 0.00 | 43 | 1020.1 |
| 20260503172025 | 78 | 261 | 11.0 | 16.0 | 0.00 | 0.00 | 0.00 | 41 | 1020.2 |
| 20260503171557 | 78 | 229 | 9.0 | 16.0 | 0.00 | 0.00 | 0.00 | 42 | 1020.3 |
| 20260503171027 | 78 | 244 | 7.0 | 16.0 | 0.00 | 0.00 | 0.00 | 43 | 1020.3 |
| 20260503170534 | 78 | 231 | 8.0 | 16.0 | 0.00 | 0.00 | 0.00 | 44 | 1020.4 |
| 20260503150536 | 71 | 226 | 8.0 | 16.0 | 0.00 | 0.00 | 0.00 | 51 | 1021.0 |
| 20260503131033 | 61 | 209 | 0.0 | 6.0 | 0.00 | 0.00 | 0.00 | 65 | 1020.7 |
| 20260503130543 | 61 | 241 | 0.0 | 6.0 | 0.00 | 0.00 | 0.00 | 66 | 1020.6 |
| 20260503110545 | 58 | 227 | 0.0 | 3.0 | 0.00 | 0.00 | 0.00 | 66 | 1019.7 |